Worcester, MA

4:02 AM EDT on October 14, 2019 (GMT -0400)
Worcester Regional

Weather History for KORH - September, 2019

Change the Weather History Date:

Sunday, September 22, 2019

  Actual Average Record
Temperature  
Mean Temperature 69 °F 59 °F  
Max Temperature 80 °F 67 °F 90 °F (1931)
Min Temperature 58 °F 51 °F 33 °F (1929)
Degree Days  
Heating Degree Days 0 7  
Month to date heating degree days 93 86  
Since 1 July heating degree days 107 125  
Cooling Degree Days 4 1  
Month to date cooling degree days 24 38  
Year to date cooling degree days 535 464  
Growing Degree Days 19 (Base 50)    
Moisture  
Dew Point 58 °F    
Average Humidity 68    
Maximum Humidity 90    
Minimum Humidity 42    
Precipitation  
Precipitation 0.00 in 0.14 in 2.04 in (1913)
Month to date precipitation 1.95 2.73  
Year to date precipitation 37.18 34.09  
Sea Level Pressure  
Sea Level Pressure 30.11 in    
Wind  
Wind Speed 9 mph ()    
Max Wind Speed 18 mph    
Max Gust Speed 23 mph    
Visibility 10.0 miles    
Events      
T = Trace of Precipitation, MM = Missing Value Source: Averaged Metar Reports

Daily Weather History Graph

Daily Weather History Graph

Search for Another Location

Airport or City:

Astronomy

Sep. 22, 2019 Rise Set
Actual Time 6:34 AM EDT 6:45 PM EDT
Civil Twilight 6:06 AM EDT 7:13 PM EDT
Nautical Twilight 5:33 AM EDT 7:45 PM EDT
Astronomical Twilight 5:00 AM EDT 8:19 PM EDT
Moon No Moon Rise 2:44 PM EDT (9/22)
Length of Visible Light 13h 06m
Length of Day
12h 10m
Last Quarter, 44% of the Moon is Illuminated
Sep 22
Last Quarter
Sep 28
New
Oct 5
First Quarter
Oct 13
Full
Oct 21
Last Quarter

Hourly Weather History & Observations

Time (EDT) Temp. Heat Index Dew Point Humidity Pressure Visibility Wind Dir Wind Speed Gust Speed Precip Events Conditions
12:54 AM 61.0 °F - 57.0 °F 87% 30.19 in 10.0 mi WSW 9.2 mph - N/A   Clear
1:54 AM 63.0 °F - 57.0 °F 81% 30.19 in 10.0 mi West 9.2 mph - N/A   Clear
2:54 AM 62.1 °F - 55.9 °F 80% 30.17 in 10.0 mi WSW 5.8 mph - N/A   Clear
3:54 AM 61.0 °F - 55.0 °F 81% 30.17 in 10.0 mi WSW 8.1 mph - N/A   Clear
4:54 AM 62.1 °F - 54.0 °F 75% 30.17 in 10.0 mi WSW 8.1 mph - N/A   Clear
5:54 AM 61.0 °F - 53.1 °F 75% 30.17 in 10.0 mi WSW 6.9 mph - N/A   Clear
6:54 AM 61.0 °F - 54.0 °F 78% 30.17 in 10.0 mi West 6.9 mph - N/A   Clear
7:54 AM 64.0 °F - 55.0 °F 73% 30.17 in 10.0 mi West 9.2 mph - N/A   Clear
8:54 AM 66.9 °F - 55.9 °F 68% 30.17 in 10.0 mi WSW 9.2 mph - N/A   Clear
9:54 AM 71.1 °F - 57.9 °F 63% 30.16 in 10.0 mi WSW 9.2 mph - N/A   Clear
10:54 AM 73.9 °F - 57.9 °F 57% 30.15 in 10.0 mi WSW 10.4 mph - N/A   Clear
11:54 AM 75.9 °F - 57.9 °F 54% 30.14 in 10.0 mi WSW 13.8 mph - N/A   Clear
12:54 PM 79.0 °F - 55.9 °F 45% 30.12 in 10.0 mi WSW 16.1 mph 23.0 mph N/A   Clear
1:54 PM 80.1 °F 80.2 °F 55.9 °F 43% 30.10 in 10.0 mi WSW 13.8 mph - N/A   Clear
2:54 PM 80.1 °F 80.4 °F 57.0 °F 45% 30.09 in 10.0 mi SW 12.7 mph - N/A   Clear
3:54 PM 79.0 °F - 59.0 °F 50% 30.06 in 10.0 mi SW 12.7 mph - N/A   Clear
4:54 PM 79.0 °F - 61.0 °F 54% 30.04 in 10.0 mi SSW 9.2 mph - N/A   Clear
5:54 PM 77.0 °F - 62.1 °F 60% 30.03 in 10.0 mi SSW 6.9 mph - N/A   Clear
6:54 PM 72.0 °F - 62.1 °F 71% 30.03 in 10.0 mi SSW 9.2 mph - N/A   Clear
7:54 PM 70.0 °F - 62.1 °F 76% 30.03 in 10.0 mi SW 12.7 mph - N/A   Clear
8:54 PM 69.1 °F - 61.0 °F 75% 30.03 in 10.0 mi SW 15.0 mph - N/A   Clear
9:54 PM 66.9 °F - 61.0 °F 81% 30.01 in 10.0 mi SW 13.8 mph - N/A   Clear
10:54 PM 66.9 °F - 60.1 °F 79% 30.00 in 10.0 mi WSW 12.7 mph - N/A   Clear
11:54 PM 66.9 °F - 61.0 °F 81% 29.98 in 10.0 mi WSW 11.5 mph - N/A   Clear